Content
SEND FEEDBACK

Daily
Averages
Monthly
Summary
United States of America

WEBSTER NOTCH, NEW HAMPSHIRE


Home > North America > United States > New Hampshire
Elevation: 390 feet     Latitude: 43 27N     Longitude: 071 40W

WEATHER
 
SELECT A DAY
Number of Records: 458,610;   Date Range: 1/1/95 - 11/25/14
 
SHARE

PRINT THIS DATA

[ ← Previous Day ]
WEATHER ALMANAC - JANUARY 31, 2013
[ Next Day → ]
[ °C ]   °F
Weather ElementAverageHighLow
Temperature43 °F59 °F (5:35 am)26.6 °F (11:35 pm)
Dewpoint30.3 °F53.6 °F (1:35 am)6.8 °F (7:55 pm)
Humidity63.7 %100 % (1:35 am)37 % (7:55 pm)
Barometer29.17 in29.47 in (11:35 pm)28.86 in (8:55 am)
Wind Speed20.6 mph36.8 mph (11:55 am)
Wind Gust48.3 mph (11:55 am)
Weather ElementAverage
Visibility9.1 mi
Wind DirectionSW (221.3 °)

Weather ElementTotal
Precipitation0.69 in
Heating Degree Days22.2 (Base 65)
Averaged from 67 records on January 31, 2013
WEATHER CONDITIONS BREAKOUT
WIND DIRECTION BREAKOUT
WEATHER BY HOUR - JANUARY 31, 2013
[ °C ]   °F
Local TimeTemperatureDewpointHumidityBarometerVisibilityWind DirectionWind SpeedGust SpeedPrecipitationEventsConditions
12:35 AM39.2 °F37.4 °F93 %29.35 in0.5 miCalm0.01 inOvercast
12:55 AM39.2 °F37.4 °F93 %29.33 in0.5 miCalm0.02 inOvercast
1:15 AM48.2 °F46.4 °F93 %29.30 in1.0 miSouth (180°)5.8 mphOvercast
1:35 AM53.6 °F53.6 °F100 %29.27 in5.0 miSouth (170°)8.1 mphOvercast
1:55 AM55.4 °F53.6 °F94 %29.25 in4.0 miSouth (190°)12.7 mph19.6 mph0.01 inOvercast
2:15 AM55.4 °F53.6 °F94 %29.22 in4.0 miSouth (180°)12.7 mph21.9 mphOvercast
2:35 AM55.4 °F53.6 °F94 %29.20 in5.0 miSouth (190°)16.1 mph21.9 mph0.01 inOvercast
2:55 AM55.4 °F53.6 °F94 %29.18 in10.0 miSouth (180°)16.1 mph23.0 mph0.02 inOvercast
3:15 AM55.4 °F53.6 °F94 %29.14 in10.0 miSouth (190°)17.3 mph27.6 mph0.03 inOvercast
3:35 AM55.4 °F53.6 °F94 %29.12 in10.0 miSouth (190°)13.8 mph27.6 mph0.03 inOvercast
3:55 AM55.4 °F53.6 °F94 %29.10 in10.0 miSouth (190°)23.0 mph27.6 mph0.03 inOvercast
4:15 AM55.4 °F53.6 °F94 %29.07 in10.0 miSouth (190°)15.0 mph26.5 mphOvercast
4:35 AM57.2 °F53.6 °F88 %29.03 in10.0 miSouth (180°)15.0 mph28.8 mphOvercast
4:55 AM57.2 °F53.6 °F88 %29.00 in10.0 miSouth (190°)21.9 mph34.5 mphOvercast
5:15 AM57.2 °F53.6 °F88 %28.98 in10.0 miSouth (190°)17.3 mph36.8 mph0.01 inOvercast
5:35 AM59.0 °F53.6 °F82 %28.95 in10.0 miSouth (170°)23.0 mph34.5 mph0.04 inOvercast
5:55 AM59.0 °F53.6 °F82 %28.92 in10.0 miSouth (190°)16.1 mph38.0 mph0.10 inOvercast
6:15 AM59.0 °F53.6 °F82 %28.90 in8.0 miSouth (180°)33.4 mph43.7 mph0.05 inMostly Cloudy
6:35 AM59.0 °F53.6 °F82 %28.93 in8.0 miSSW (210°)23.0 mph40.3 mph0.09 inMostly Cloudy
7:15 AM55.4 °F51.8 °F88 %28.94 in10.0 miSSW (200°)11.5 mph18.4 mph0.03 inOvercast
7:35 AM55.4 °F51.8 °F88 %28.90 in10.0 miSouth (180°)9.2 mph0.03 inOvercast
7:55 AM55.4 °F51.8 °F88 %28.88 in10.0 miSouth (170°)9.2 mph17.3 mph0.03 inOvercast
8:15 AM55.4 °F51.8 °F88 %28.87 in10.0 miSouth (190°)8.1 mph16.1 mphOvercast
8:35 AM55.4 °F51.8 °F88 %28.87 in10.0 miSouth (190°)18.4 mph24.2 mphMostly Cloudy
8:55 AM55.4 °F50.0 °F82 %28.86 in10.0 miSouth (190°)17.3 mph21.9 mphOvercast
9:15 AM53.6 °F48.2 °F82 %28.90 in7.0 miWest (260°)26.5 mph36.8 mph0.03 inMostly Cloudy
9:35 AM46.4 °F37.4 °F71 %28.94 in10.0 miWSW (240°)18.4 mph33.4 mph0.03 inOvercast
9:55 AM44.6 °F35.6 °F71 %28.98 in9.0 miSW (230°)17.3 mph29.9 mph0.03 inOvercast
10:15 AM42.8 °F35.6 °F76 %28.98 in10.0 miSW (220°)13.8 mph26.5 mph0.02 inOvercast
10:35 AM42.8 °F35.6 °F76 %28.98 in10.0 miWSW (240°)11.5 mph0.02 inOvercast
10:55 AM42.8 °F33.8 °F70 %29.00 in10.0 miWest (260°)18.4 mph26.5 mph0.02 inOvercast
11:15 AM42.8 °F30.2 °F61 %29.02 in10.0 miWest (260°)26.5 mph35.7 mphOvercast
11:35 AM42.8 °F30.2 °F61 %29.02 in10.0 miWSW (250°)28.8 mph35.7 mphOvercast
11:55 AM42.8 °F30.2 °F61 %29.05 in10.0 miWSW (240°)36.8 mph48.3 mphOvercast
12:15 PM42.8 °F26.6 °F53 %29.07 in10.0 miWSW (250°)28.8 mph36.8 mphMostly Cloudy
12:35 PM41.0 °F24.8 °F53 %29.08 in10.0 miWSW (240°)34.5 mph42.6 mphOvercast
12:55 PM41.0 °F21.2 °F45 %29.09 in10.0 miWSW (250°)31.1 mph39.1 mphMostly Cloudy
1:15 PM39.2 °F21.2 °F49 %29.10 in10.0 miWSW (250°)24.2 mph36.8 mphMostly Cloudy
1:35 PM39.2 °F21.2 °F49 %29.13 in10.0 miWest (270°)25.3 mph38.0 mphMostly Cloudy
1:55 PM39.2 °F19.4 °F45 %29.14 in10.0 miWSW (240°)31.1 mph38.0 mphOvercast
2:15 PM39.2 °F19.4 °F45 %29.16 in10.0 miWSW (250°)28.8 mph42.6 mphOvercast
2:35 PM37.4 °F17.6 °F45 %29.16 in10.0 miWest (260°)33.4 mph44.9 mphMostly Cloudy
2:55 PM37.4 °F17.6 °F45 %29.19 in10.0 miWest (260°)25.3 mph38.0 mphScattered Clouds
3:15 PM37.4 °F14.0 °F38 %29.21 in10.0 miWest (260°)25.3 mph44.9 mphScattered Clouds
3:35 PM37.4 °F14.0 °F38 %29.23 in10.0 miWest (270°)19.6 mph36.8 mphMostly Cloudy
4:15 PM35.6 °F12.2 °F38 %29.25 in10.0 miWSW (250°)24.2 mph38.0 mphOvercast
4:35 PM35.6 °F12.2 °F38 %29.27 in10.0 miWSW (250°)24.2 mph40.3 mphOvercast
4:55 PM33.8 °F12.2 °F41 %29.27 in10.0 miWSW (250°)19.6 mph34.5 mphMostly Cloudy
5:15 PM33.8 °F10.4 °F38 %29.28 in10.0 miWSW (240°)25.3 mph35.7 mphMostly Cloudy
5:35 PM33.8 °F12.2 °F41 %29.29 in10.0 miWSW (240°)24.2 mph39.1 mphMostly Cloudy
5:55 PM33.8 °F10.4 °F38 %29.31 in10.0 miWSW (250°)25.3 mph35.7 mphOvercast
6:15 PM33.8 °F10.4 °F38 %29.33 in10.0 miWest (260°)27.6 mph40.3 mphMostly Cloudy
6:35 PM32.0 °F12.2 °F44 %29.35 in10.0 miWest (260°)24.2 mph39.1 mphMostly Cloudy
7:15 PM30.2 °F8.6 °F40 %29.37 in10.0 miWSW (250°)28.8 mph35.7 mphOvercast
7:35 PM30.2 °F8.6 °F40 %29.39 in10.0 miWSW (250°)21.9 mph39.1 mphMostly Cloudy
7:55 PM30.2 °F6.8 °F37 %29.39 in10.0 miWSW (250°)25.3 mph43.7 mphOvercast
8:15 PM30.2 °F8.6 °F40 %29.39 in10.0 miWSW (250°)19.6 mph33.4 mphOvercast
8:35 PM30.2 °F6.8 °F37 %29.40 in10.0 miWSW (240°)24.2 mph32.2 mphMostly Cloudy
8:55 PM30.2 °F8.6 °F40 %29.41 in10.0 miWSW (250°)26.5 mph35.7 mphMostly Cloudy
9:15 PM30.2 °F6.8 °F37 %29.41 in10.0 miWSW (250°)21.9 mph39.1 mphOvercast
9:35 PM30.2 °F6.8 °F37 %29.42 in10.0 miWSW (250°)27.6 mph42.6 mphOvercast
9:55 PM28.4 °F6.8 °F40 %29.43 in10.0 miWSW (250°)26.5 mph33.4 mphMostly Cloudy
10:15 PM28.4 °F6.8 °F40 %29.44 in10.0 miWSW (250°)26.5 mph39.1 mphMostly Cloudy
10:35 PM28.4 °F6.8 °F40 %29.45 in10.0 miWSW (250°)17.3 mph31.1 mphMostly Cloudy
10:55 PM28.4 °F6.8 °F40 %29.45 in10.0 miWest (260°)23.0 mph36.8 mphOvercast
11:15 PM28.4 °F10.4 °F47 %29.46 in10.0 miWest (270°)12.7 mph23.0 mphOvercast
11:35 PM26.6 °F14.0 °F59 %29.47 in10.0 miWest (280°)11.5 mph17.3 mphMostly Cloudy
Hourly data recorded from KLCI, located miles away from Webster Notch, New Hampshire







STORIES FROM OUR PARTNERS